Regional Weather Roundup
Issued by NWS Upton, NY

Current Version | Previous Version | Graphics & Text | Print | Product List | Glossary Off
Versions: 1 2 3 4 5 6 7 8 9 10 11 12 13 14 15 16 17 18 19 20 21 22 23 24 25 26 27 28 29 30 31 32 33 34 35 36 37 38 39 40 41 42 43 44 45 46 47 48 49 50

000
ASUS41 KOKX 212205
RWROKX

REGIONAL WEATHER ROUNDUP
NATIONAL WEATHER SERVICE NEW YORK NY
600 PM EDT THU AUG 21 2014

NOTE: "FAIR" INDICATES FEW OR NO CLOUDS BELOW 12,000 FEET WITH NO
SIGNIFICANT WEATHER AND/OR OBSTRUCTIONS TO VISIBILITY.

NYZ071-072-176-178-NJZ106-104-212300-
NEW YORK CITY METRO AREA


CITY           SKY/WX    TMP DP  RH WIND       PRES   REMARKS
CENTRAL PARK   MOSUNNY   76  55  48 S8G16     30.04F
LAGUARDIA APRT PTSUNNY   78  54  43 SE14      30.01F
KENNEDY INTL   PTSUNNY   76  61  59 SE10      30.03F
NEWARK/LIBERTY PTSUNNY   77  60  55 SE10G16   30.01S
BRNX BOT. GARD   N/A     77  55  47 SE8       30.03R
TETERBORO      MOSUNNY   79  56  45 S8        29.99F
$$

NYZ177-179-078>081-212300-
LONG ISLAND NEW YORK

CITY           SKY/WX    TMP DP  RH WIND       PRES   REMARKS
FARMINGDALE    MOSUNNY   73  63  70 S10       30.03F
ISLIP          PTSUNNY   74  64  71 SE13      30.02F
SHIRLEY        PTSUNNY   73  64  73 SE9       30.05S
WESTHAMPTON    MOSUNNY   71  63  75 SE7       30.07S
MONTAUK POINT    N/A     72  64  76 VRB3      30.07S
$$

NYZ052-065-067-212300-
HUDSON VALLEY

CITY           SKY/WX    TMP DP  RH WIND       PRES   REMARKS
WHITE PLAINS   SUNNY     74  56  53 SE8       30.02F
NEWBURGH       NOT AVBL
MONTGOMERY     PTSUNNY   77  63  61 S7        30.00R
POUGHKEEPSIE   PTSUNNY   77  64  64 S6        29.99S
ALBANY         LGT RAIN  75  64  68 VRB6      29.99S
$$

NJZ001-105-106-008-010-013-015-019>022-104-212300-
NEW JERSEY

CITY           SKY/WX    TMP DP  RH WIND       PRES   REMARKS
NEWARK/LIBERTY PTSUNNY   77  60  55 SE10G16   30.01S
TETERBORO      MOSUNNY   79  56  45 S8        29.99F
CALDWELL       MOSUNNY   76  59  55 S9        30.02R
MORRISTOWN     NOT AVBL
SOMERVILLE     PTSUNNY   80  64  58 SE12G17   29.97S
LINDEN         FAIR      81  64  56 SE12      30.02F
SUSSEX         PTSUNNY   82  61  48 VRB5      29.98S
ANDOVER          N/A     80  60  50 SW8       30.01R
TRENTON        CLOUDY    79  63  57 S14       29.98F
MILLVILLE      CLOUDY    77  67  71 S7        30.01F
ATLANTIC CITY  CLOUDY    75  63  66 S10       30.02F
WRIGHTSTOWN    PTSUNNY   77  63  61 S6        29.98F
TOMS RIVER     CLOUDY    75  63  64 SE7       30.02F
BELMAR         CLOUDY    73  59  60 SE10      30.02F
$$

PAZ047>061-062-071-212300-
EASTERN PENNSYLVANIA

CITY           SKY/WX    TMP DP  RH WIND       PRES   REMARKS
PHILADELPHIA   CLOUDY    82  69  64 S8        29.99F
ALLENTOWN      PTSUNNY   83  68  60 S10       29.97F
SCRANTON       MOSUNNY   81  66  60 W13       29.98S
$$

CTZ002-004>006-009-010-012-RIZ004-006-007-MAZ004-011-015-212300-
SOUTHERN NEW ENGLAND
 IN CT

CITY           SKY/WX    TMP DP  RH WIND       PRES   REMARKS
BRADLEY INTL   CLOUDY    76  61  59 SW6       30.02S
HARTFORD       CLOUDY    75  62  64 S8        30.03S
DANBURY        MOSUNNY   73  61  65 VRB6      30.04S
WTRBRY/OXFORD  PTSUNNY   72  57  60 S8        30.07S
BRIDGEPORT     CLOUDY    75  66  73 SE7       30.03S
MERIDEN        CLOUDY    75  61  61 SE6       30.04S
NEW HAVEN      PTSUNNY   78  66  66 SE9       30.04F
CHESTER        CLOUDY    72  64  78 SE6       30.06S
GROTON         CLOUDY    70  64  81 SE7       30.05S
WILLIMANTIC    CLOUDY    75  64  68 S8        30.05S

 IN RI

CITY           SKY/WX    TMP DP  RH WIND       PRES   REMARKS
PROVIDENCE     CLOUDY    73  63  70 S9        30.06R
BLOCK ISLAND   PTSUNNY   70  61  73 S7        30.08R
WESTERLY       PTSUNNY   72  63  73 S8        30.07R

 IN MA

CITY           SKY/WX    TMP DP  RH WIND       PRES   REMARKS
BOSTON         PTSUNNY   68  64  87 E8        30.07S
WORCESTER      CLOUDY    69  57  65 NE6       30.09R
WESTFIELD      CLOUDY    73  63  70 N5        30.03S
PROVINCETOWN   SUNNY     70  63  78 MISG      30.07S
NANTUCKET      SUNNY     70  55  59 NE8       30.06R
$$

ANZ330-335-338-340-345-350-353-355-212300-
COASTAL MARINE OBSERVATIONS


STATION/POSITION TIME  SKY/WX   TEMP    WIND        PRES    VSBY  WAVE
                                AIR SEA DIR/SP/G                  HT/PER
                 (UTC)          (F)     (DEG/KT/KT) (MB)    (MI)  (FT/S)
NY HARB ENTRANCE NOT AVBL
4S FIRE IS       NOT AVBL
23SW MTP         2200            71 71              1017.3          4/ 7
HUDSON CANYON    2200            72 74   90/  4/  6 1017.2          4/ 7
EXECUTION ROCKS  2200            77 74  150/ 12/ 16   N/A
WESTERN LI SOUND 2200            76     140/  8/ 12   N/A           1/ 3
CENTRAL LI SOUND 2100            72 73  170/ 10/ 12   N/A           1
EASTERN LI SOUND 2100            72 70  160/  6/  6   N/A
ROBBINS REEF     2200            73     160/ 20/ 21   N/A
$$


>>>>>>>>>>>>>>>>>>>>>>>>>>>> KEY <<<<<<<<<<<<<<<<<<<<<<<<<<<
>                                                          <
>     SKY/WX - SKY CONDITION/PRESENT WEATHER               <
>     TMP    - TEMPERATURE IN FAHRENHEIT                   <
>     DP     - DEWPOINT IN FAHRENHEIT                      <
>     RH     - RELATIVE HUMIDITY IN PERCENT                <
>     WIND   - DIRECTION AND SPEED IN MPH                  <
>     PRES   - MEAN SEA LEVEL PRESSURE IN INCHES OF HG     <
>     WCI    - WIND CHILL INDEX                            <
>     VSB    - VISIBILITY IN MILES                         <
>     HX     - HEAT INDEX                                  <
>     TC     - TEMPERATURE IN CELSIUS                      <
>     VRB    - VARIABLE WIND DIRECTION                     <
>                                                          <
>>>>>>>>>>>>>>>>>>>>>>>>>>>> KEY <<<<<<<<<<<<<<<<<<<<<<<<<<<





USA.gov is the U.S. government's official web portal to all federal, state and local government web resources and services.